Location: Gleizolles
(44.4833°N, 6.7667°E)
Time: 16:42:27
(UTC+00:00)

Tiros 1 - Pass Details

Date: 04 July 2024
Orbit: 624 x 656 km, 48.4° (Epoch: 13 July)

Event Time Altitude Azimuth Distance (km) Brightness Sun altitude
Rises 17:40:03 0° 201° (SSW) 2,903 10.6 15.3°
Reaches altitude 10° 17:42:50 10° 185° (S) 1,995 9.6 14.8°
Maximum altitude 17:46:13 21° 137° (SE) 1,425 8.5 14.3°
Drops below altitude 10° 17:49:36 10° 89° (E) 1,995 9.1 13.7°
Sets 17:52:23 0° 73° (ENE) 2,904 10.0 13.2°
